Location: Kergonan
(48.2337°N, 4.5518°W)
Time: 08:46:36
(UTC+00:00)

Okean O Rocket - Pass Details

Date: 18 January 2020
Orbit: 622 x 645 km, 98.2° (Epoch: 27 February)

Event Time Altitude Azimuth Distance (km) Brightness Sun altitude
Rises 05:25:06 0° 22° (NNE) 2,970 5.3 -25.7°
Reaches altitude 10° 05:27:30 10° 32° (NNE) 2,054 4.5 -25.3°
Maximum altitude 05:31:34 33° 96° (E) 1,084 3.4 -24.6°
Drops below altitude 10° 05:35:34 10° 161° (SSE) 2,031 4.5 -23.9°
Sets 05:37:56 0° 171° (S) 2,932 5.2 -23.5°
